HISAKI (SPRINT-A) 1 39253U 13049A 21111.57754332 .00000118 00000-0 69025-4 0 9997 2 39253 29.7209 68.5478 0137249 238.4027 120.3083 13.55246378375830 EPSILON DEB 1 39254U 13049B 21111.59212319 .00000084 00000-0 16888-4 0 9995 2 39254 29.7051 290.6708 0182461 10.9145 349.5321 13.75226063382424 EPSILON R/B 1 39255U 13049C 21111.39333249 .00000103 00000-0 17997-4 0 9994 2 39255 29.7519 16.9956 0114031 199.5246 160.0947 14.01056934389472